MMS 1

Last updated on Aug. 10, 2020, 5:33 a.m. UTC

1 40482U 15011A   20222.27033612 -.00001871  00000-0  00000+0 0  9995
2 40482  29.5649 120.0035 8573977  22.7741 129.1430  0.28670658 11368
UTC
Height (km)
Latitude
Longitude
Inclination
Orbital Period
UTC large
Height (km)
Speed (km/s)
/
Latitude / Longitude
Inclination (degrees)
Orbital Period (minutes)
Azimuth
Elevation
Range (km)
Doppler Factor
iOS Compass Heading
iOS Angle

Next 30 passes for location: Hong Kong

Rise time Rise Azimuth (degrees) Set time Set Azimuth (degrees) Duration Max altitude (degrees)

No matching passes for this satellites